EW9828 Weather Reports


time (UTC)temp
C
wind
direction
speed
KPH
gust
KPH
rain 1hr
cm
rain 24hr
cm
rain mn
cm
humidity
%
barometer
mb
20260506134531 18 5 0.0 0.0 0.00 0.00 0.00 70 1012.0
20260506133030 18 5 0.0 0.0 0.00 0.00 0.00 72 1011.8
20260506131534 17 5 0.0 0.0 0.00 0.00 0.00 75 1012.0
20260506130030 17 5 0.0 0.0 0.00 0.00 0.00 77 1012.1
20260506124530 17 5 0.0 0.0 0.00 0.00 0.00 77 1011.9
20260506123031 17 5 0.0 0.0 0.00 0.00 0.00 76 1011.9
20260506121527 17 5 0.0 0.0 0.00 0.00 0.00 72 1011.8
20260506120038 17 5 0.0 0.0 0.00 0.00 0.00 72 1011.5
20260506114526 17 5 0.0 0.0 0.00 0.00 0.00 72 1011.4
20260506113030 17 5 0.0 0.0 0.00 0.00 0.00 71 1011.3
20260506111525 17 5 0.0 0.0 0.00 0.00 0.00 72 1011.3
20260506110025 17 5 0.0 0.0 0.00 0.00 0.00 71 1011.2
20260506104524 17 5 0.0 0.0 0.00 0.00 0.00 71 1011.3
20260506103023 17 5 0.0 0.0 0.00 0.00 0.00 71 1011.2
20260506101522 17 5 0.0 0.0 0.00 0.00 0.00 71 1011.2
20260506100021 17 5 0.0 0.0 0.00 0.00 0.00 72 1011.2
20260506094521 17 5 0.0 0.0 0.00 0.00 0.00 73 1011.4
20260506093020 17 5 0.0 0.0 0.00 0.00 0.00 73 1011.4
20260506091519 17 5 0.0 0.0 0.00 0.00 0.00 73 1011.4
20260506090024 17 5 0.0 0.0 0.00 0.00 0.00 73 1011.5
20260506084520 17 5 0.0 0.0 0.00 0.00 0.00 73 1011.7
20260506083017 17 5 0.0 0.0 0.00 0.00 0.00 74 1011.7
20260506081515 17 5 0.0 0.0 0.00 0.00 0.00 75 1011.8
20260506073011 17 5 0.0 0.0 0.00 0.00 0.00 75 1011.9
20260506071509 17 5 0.0 0.0 0.00 0.00 0.00 75 1012.0
20260506061503 18 5 0.0 0.0 0.00 0.00 0.00 73 1012.3
20260506050113 19 14 0.0 0.0 0.00 0.00 0.00 69 1012.8
20260506044553 19 5 0.0 0.0 0.00 0.00 0.00 68 1012.8
20260506043054 19 5 0.0 0.0 0.00 0.00 0.00 67 1012.8
20260506041547 20 5 0.0 0.0 0.00 0.00 0.00 66 1012.6
20260506040047 20 5 0.0 0.0 0.00 0.00 0.00 65 1012.5
20260506034549 20 5 0.0 0.0 0.00 0.00 0.00 63 1012.5
20260506033048 20 5 0.0 0.0 0.00 0.00 0.00 62 1012.5
20260506031549 20 5 0.0 0.0 0.00 0.00 0.00 60 1012.7
20260506030047 20 5 0.0 0.0 0.00 0.00 0.00 59 1012.7
20260506024553 20 5 0.0 0.0 0.00 0.00 0.00 57 1012.7
20260506023042 20 5 0.0 0.0 0.00 0.00 0.00 56 1012.7
20260506021556 21 5 0.0 0.0 0.00 0.00 0.00 55 1012.7
20260506020041 21 5 0.0 0.0 0.00 0.00 0.00 55 1012.5
20260506014541 21 5 0.0 0.0 0.00 0.00 0.00 54 1012.4
20260506013050 21 5 0.0 0.0 0.00 0.00 0.00 53 1012.2
20260506011540 21 5 0.0 0.0 0.00 0.00 0.00 53 1012.1
20260506010039 21 5 0.0 0.0 0.00 0.00 0.00 52 1012.0
20260506004538 22 5 0.0 0.0 0.00 0.00 0.00 50 1011.8
20260506003038 22 5 0.0 0.0 0.00 0.00 0.00 46 1011.7
20260506001541 23 5 0.0 0.0 0.00 0.00 0.00 44 1011.7
20260506000040 23 5 0.0 0.0 0.00 0.00 0.00 43 1011.6
20260505234537 24 5 0.0 0.0 0.00 0.00 0.00 42 1011.4
20260505233038 25 5 0.0 0.0 0.00 0.00 0.00 42 1011.4
20260505231542 25 5 0.0 0.0 0.00 0.00 0.00 42 1011.3
20260505230037 25 5 0.0 0.0 0.00 0.00 0.00 42 1011.4
20260505224536 25 5 0.0 0.0 0.00 0.00 0.00 41 1011.4
20260505223036 26 5 0.0 0.0 0.00 0.00 0.00 41 1011.5
20260505221536 26 5 0.0 0.0 0.00 0.00 0.00 41 1011.6
20260505220033 26 5 0.0 0.0 0.00 0.00 0.00 40 1011.5
20260505214546 26 5 0.0 0.0 0.00 0.00 0.00 40 1011.7
20260505213129 26 5 0.0 0.0 0.00 0.00 0.00 37 1011.7
20260505211532 26 26 0.0 0.0 0.00 0.00 0.00 39 1011.7
20260505210028 27 29 0.0 0.0 0.00 0.00 0.00 36 1011.7
20260505204526 27 21 0.0 0.0 0.00 0.00 0.00 37 1011.9
20260505203026 27 21 0.0 0.0 0.00 0.00 0.00 35 1011.8
20260505201524 27 5 0.0 0.0 0.00 0.00 0.00 35 1012.0
20260505200027 27 11 0.0 0.0 0.00 0.00 0.00 34 1012.2
20260505194522 27 10 0.0 0.0 0.00 0.00 0.00 33 1012.3
20260505193021 27 10 0.0 0.0 0.00 0.00 0.00 34 1012.4
20260505191520 27 13 0.0 0.0 0.00 0.00 0.00 34 1012.6
20260505190027 27 12 0.0 0.0 0.00 0.00 0.00 35 1012.8
20260505184519 27 15 0.0 0.0 0.00 0.00 0.00 33 1013.0
20260505183021 27 14 0.0 0.0 0.00 0.00 0.00 33 1013.0
20260505181518 28 22 0.0 0.0 0.00 0.00 0.00 32 1013.4
20260505180015 28 13 0.0 0.0 0.00 0.00 0.00 34 1013.4
20260505174512 28 13 0.0 0.0 0.00 0.00 0.00 34 1013.7
20260505173009 27 11 0.0 0.0 0.00 0.00 0.00 36 1013.8
20260505171508 27 11 0.0 0.0 0.00 0.00 0.00 39 1013.9
20260505170007 26 12 0.0 0.0 0.00 0.00 0.00 42 1014.2
20260505164501 26 12 0.0 0.0 0.00 0.00 0.00 42 1014.3
20260505163101 25 13 0.0 0.0 0.00 0.00 0.00 41 1014.6
20260505161605 26 13 0.0 0.0 0.00 0.00 0.00 41 1014.7
20260505153058 24 12 0.0 0.0 0.00 0.00 0.00 46 1015.0
20260505151544 23 12 0.0 0.0 0.00 0.00 0.00 51 1015.1